www.pogodaiklimat.ru

Погода и климат >> Архив погоды >> Австрия >> Ласницхёэ


ПОГОДА в Ласницхёэ

  • Прогноз погоды в Ласницхёэ
  • Монитор погоды в Ласницхёэ

АРХИВ ПОГОДЫ в Ласницхёэ

Время (UTC), дата Ветер
(напр.,м/с)
 
Видим.   Явления Облачность Т
(С)
Тd
(С)
f
(%)
Тe
(С)
Тes
(С)
Комфортность P
(гПа)
Po
(гПа)
Тmin
(С)
Tmax
(С)
R
(мм)
R24
(мм)
S
(см)
10 16.09 Ю 1 н/о н/о +24.1 +13.5 52 +26 +26 жарко 1017.8 958.4
11 16.09 ЮВ 2 н/о н/о +24.6 +14.6 54 +27 +27 жарко 1017.0 957.8
12 16.09 Ю 1 н/о н/о +25.3 +15.2 54 +28 +28 жарко 1016.1 957.1
13 16.09 Ю 2 н/о н/о +25.8 +14.7 50 +28 +28 жарко 1015.3 956.4
14 16.09 Ю 2 н/о н/о +25.5 +14.2 50 +28 +28 жарко 1014.7 955.8
15 16.09 Ю 1 н/о н/о +24.7 +14.6 53 +27 +27 жарко 1014.4 955.4
16 16.09 штиль 0 н/о н/о +23.6 +14.4 56 +26 +26 жарко 1014.6 955.3
17 16.09 штиль 0 н/о н/о +22.4 +15.0 63 +26 +26 жарко 1014.6 955.1
18 16.09 В 1 н/о н/о +21.5 +14.8 66 +25 +25 комфорт 1014.9 955.2 +17.9 +26.2
19 16.09 В 1 н/о н/о +21.2 +14.9 67 +24 +24 комфорт 1015.0 955.3
20 16.09 В 1 н/о н/о +20.3 +15.1 72 +24 +24 комфорт 1015.2 955.3
21 16.09 СВ 1 н/о н/о +19.8 +14.4 71 +23 +23 комфорт 1015.2 955.2
22 16.09 С 1 н/о н/о +19.6 +14.4 72 +22 +22 комфорт 1014.9 954.8
23 16.09 С 1 н/о н/о +19.7 +14.1 70 +23 +23 комфорт 1014.8 954.8
00 17.09 СВ 2 н/о н/о +18.1 +14.4 79 +19 +19 1015.5 955.1
01 17.09 З 1 н/о н/о +18.6 +14.5 77 +20 +20 1014.8 954.6 0.0
02 17.09 З 1 н/о в посл. час осадки н/о +16.8 +15.8 94 +18 +18 1014.8 954.2 1
03 17.09 ЮЗ 2 н/о {осадки} н/о +16.5 +15.9 96 +17 +17 1014.7 954.1 1
04 17.09 ЮЗ 2 н/о н/о +16.4 +15.8 96 +16 +16 1015.0 954.3 0.0
05 17.09 ЮЗ 1 н/о н/о +16.5 +15.7 95 +17 +17 1014.8 954.2
06 17.09 З 1 н/о {осадки} н/о +18.0 +16.4 90 +19 +19 1014.7 954.4 +16.3 +21.8 1
07 17.09 ЮЗ 1 н/о н/о +18.2 +16.1 88 +20 +20 1015.0 954.7
08 17.09 ЮЗ 2 н/о н/о +18.8 +16.1 84 +20 +20 1015.3 955.1
09 17.09 ЮЗ 1 н/о н/о +19.7 +15.2 75 +23 +23 комфорт 1014.9 954.9
10 17.09 Ю 1 н/о н/о +21.1 +15.6 71 +24 +24 комфорт 1014.4 954.7
11 17.09 Ю 1 н/о н/о +21.9 +14.5 63 +25 +25 комфорт 1013.9 954.4 0.0
12 17.09 ЮЗ 1 н/о н/о +22.3 +15.0 63 +26 +26 жарко 1013.1 953.7 0.0
13 17.09 Ю 1 н/о н/о +22.7 +14.6 60 +26 +26 жарко 1012.6 953.3
14 17.09 ЮВ 2 н/о н/о +23.1 +14.5 58 +27 +27 душно 1011.7 952.5
15 17.09 Ю 1 н/о н/о +22.5 +14.5 61 +26 +26 жарко 1011.5 952.2
16 17.09 Ю 1 н/о н/о +21.8 +15.3 67 +25 +25 комфорт 1011.5 952.1
17 17.09 Ю 1 н/о н/о +20.9 +15.6 72 +25 +25 комфорт 1011.7 952.1
18 17.09 СВ 1 н/о н/о +19.1 +15.4 79 +22 +22 комфорт 1012.7 952.7 +17.5 +23.8 0.0
19 17.09 В 2 н/о н/о +17.7 +16.0 90 +18 +18 1013.6 953.3
20 17.09 СВ 2 н/о н/о +16.6 +15.6 94 +17 +17 1014.2 953.6
21 17.09 В 2 н/о н/о +15.9 +15.2 96 +16 +16 1014.4 953.7
22 17.09 СВ 2 н/о н/о +15.5 +14.3 93 +15 +15 1015.0 954.1
23 17.09 В 1 н/о н/о +14.6 +13.9 96 +15 +15 1015.5 954.4
00 18.09 СВ 1 н/о н/о +14.4 +13.3 93 +15 +15 1015.8 954.6
01 18.09 СВ 1 н/о н/о +14.2 +13.2 94 +14 +14 1015.8 954.6
02 18.09 В 1 н/о н/о +14.4 +13.4 94 +15 +15 1016.5 955.3
03 18.09 штиль 0 н/о н/о +14.1 +13.4 96 +14 +14 1016.9 955.6
04 18.09 З 1 н/о н/о +13.3 +9.3 77 +14 +14 1018.0 956.4
05 18.09 СЗ 1 н/о н/о +13.2 +9.2 77 +13 +13 1018.7 957.0
06 18.09 СЗ 1 н/о н/о +14.3 +7.6 64 +15 +15 1019.2 957.7 +13.0 +19.4
07 18.09 ЮВ 2 н/о н/о +13.0 +10.2 83 +12 +12 1020.4 958.6
08 18.09 ЮВ 1 н/о н/о +13.9 +9.2 73 +14 +14 1021.3 959.6
09 18.09 Ю 2 н/о н/о +15.1 +8.6 65 +15 +15 1021.5 960.0
10 18.09 Ю 2 н/о н/о +15.1 +8.6 65 +15 +15 1021.8 960.3
11 18.09 ЮВ 3 н/о н/о +14.9 +7.9 63 +14 +14 1022.0 960.4
12 18.09 Ю 2 н/о н/о +14.8 +7.5 62 +15 +15 1021.9 960.3
13 18.09 Ю 1 н/о н/о +15.4 +7.1 58 +16 +16 1021.4 960.0
14 18.09 ЮЗ 1 н/о н/о +14.5 +7.4 62 +15 +15 1021.7 960.1
15 18.09 Ю 2 н/о н/о +14.7 +7.5 62 +14 +14 1021.5 959.9
16 18.09 Ю 2 н/о н/о +13.8 +7.5 66 +13 +13 1021.8 960.0
17 18.09 Ю 1 н/о н/о +12.7 +7.3 70 +13 +13 1022.3 960.3
18 18.09 Ю 1 н/о н/о +12.1 +6.8 70 +12 +12 1023.1 960.9 +12.1 +16.0
19 18.09 ЮЗ 1 н/о н/о +11.7 +6.2 69 +12 +12 1023.6 961.3
20 18.09 СВ 1 н/о н/о +11.5 +7.0 74 +11 +11 1023.8 961.4
21 18.09 штиль 0 н/о н/о +11.5 +5.4 66 +11 +11 1023.8 961.4
22 18.09 С 1 н/о н/о +11.1 +5.9 70 +11 +11 1023.8 961.3
23 18.09 СВ 1 н/о н/о +10.8 +5.6 70 +11 +11 1023.9 961.3
00 19.09 СВ 1 н/о н/о +10.1 +6.6 79 +10 +10 1024.1 961.4
01 19.09 СВ 2 н/о н/о +9.8 +7.4 85 +8 +8 1024.1 961.3
02 19.09 СВ 2 н/о н/о +9.8 +7.3 84 +8 +8 1024.0 961.2
03 19.09 СВ 2 н/о н/о +9.6 +6.7 82 +8 +8 1024.0 961.2
04 19.09 СВ 2 н/о н/о +9.2 +6.6 84 +7 +7 1024.2 961.3
05 19.09 СВ 2 н/о н/о +9.3 +6.3 82 +8 +8 1024.7 961.8
06 19.09 СВ 1 н/о н/о +9.9 +5.5 74 +10 +10 1025.2 962.4 +9.0 +12.1
07 19.09 В 1 н/о н/о +10.5 +4.8 68 +10 +10 1025.6 962.9
08 19.09 В 1 н/о н/о +11.4 +4.9 64 +11 +11 1026.1 963.5
09 19.09 В 1 н/о н/о +12.5 +3.9 56 +13 +13 1025.7 963.4
10 19.09 В 1 н/о н/о +14.1 +4.1 51 +15 +15 1025.1 963.1
11 19.09 В 1 н/о н/о +13.9 +3.9 51 +14 +14 1024.9 962.9
12 19.09 Ю 1 н/о н/о +15.0 +3.7 47 +16 +16 1024.3 962.6
13 19.09 В 3 н/о н/о +13.7 +4.7 55 +13 +13 1024.4 962.4
14 19.09 ЮВ 1 н/о н/о +14.2 +3.7 49 +15 +15 1024.2 962.3
15 19.09 В 3 н/о н/о +14.1 +4.7 53 +13 +13 1024.3 962.4
16 19.09 В 2 н/о н/о +13.5 +4.4 54 +13 +13 1024.4 962.4
17 19.09 В 2 н/о н/о +12.4 +5.0 61 +12 +12 1025.4 963.1
18 19.09 В 1 н/о н/о +11.7 +4.9 63 +12 +12 1026.2 963.7 +9.8 +16.5
19 19.09 В 2 н/о н/о +10.1 +4.9 70 +9 +9 1027.2 964.3
20 19.09 СВ 2 н/о н/о +8.6 +5.0 78 +7 +7 1028.1 964.8
21 19.09 штиль 0 н/о н/о +8.6 +4.4 75 +8 +8 1028.6 965.3
22 19.09 СВ 2 н/о н/о +7.4 +4.2 80 +5 +5 1028.9 965.3
23 19.09 СВ 2 н/о н/о +7.1 +3.4 77 +5 +5 1029.1 965.4
00 20.09 З 1 н/о н/о +7.0 +3.2 77 +6 +6 1029.5 965.7
01 20.09 СВ 1 н/о н/о +7.0 +2.6 74 +6 +6 1029.3 965.5
02 20.09 ЮЗ 2 н/о н/о +7.2 +3.3 76 +5 +5 1029.0 965.3
03 20.09 З 1 н/о н/о +6.4 +2.9 78 +5 +5 1029.1 965.2
04 20.09 СЗ 2 н/о н/о +7.6 +1.4 65 +6 +6 1028.4 964.8
05 20.09 С 1 н/о н/о +6.1 +1.7 73 +5 +5 1029.0 965.1
06 20.09 В 1 н/о н/о +8.6 +2.3 65 +8 +8 1028.9 965.5 +5.6 +11.8
07 20.09 СВ 1 н/о н/о +11.1 +2.8 57 +11 +11 1028.5 965.7
08 20.09 СВ 1 н/о н/о +11.8 +1.5 49 +12 +12 1028.9 966.2
09 20.09 В 1 н/о н/о +11.9 0.0 44 +12 +12 1028.7 966.0
10 20.09 ЮВ 1 н/о н/о +13.0 +0.3 42 +14 +14 1028.1 965.7
11 20.09 В 1 н/о н/о +14.2 +2.4 45 +15 +15 1027.6 965.5
12 20.09 В 1 н/о н/о +14.2 +1.1 41 +15 +15 1027.0 964.9
14 20.09 В 1 н/о н/о +14.4 +2.3 44 +15 +15 1026.2 964.2
15 20.09 В 1 н/о н/о +13.8 +1.6 43 +14 +14 1026.2 964.1
16 20.09 ЮВ 1 н/о н/о +13.4 +1.9 46 +14 +14 1026.2 964.0
17 20.09 ЮВ 1 н/о н/о +12.6 +1.9 48 +13 +13 1026.6 964.2
18 20.09 Ю 1 н/о н/о +11.5 +2.0 52 +12 +12 1027.3 964.6 +8.1 +15.4
19 20.09 ЮВ 1 н/о н/о +11.4 +1.4 50 +12 +12 1027.6 964.9
20 20.09 СВ 1 н/о н/о +9.7 +2.6 61 +10 +10 1028.2 965.1
21 20.09 СВ 1 н/о н/о +8.7 +3.3 69 +8 +8 1028.5 965.2
22 20.09 СВ 1 н/о н/о +8.2 +3.0 70 +8 +8 1028.5 965.1
23 20.09 СВ 2 н/о н/о +7.9 +2.9 71 +6 +6 1028.6 965.1
00 21.09 С 1 н/о н/о +7.9 +2.8 70 +7 +7 1028.6 965.1
01 21.09 СВ 1 н/о н/о +8.4 +2.4 66 +8 +8 1028.2 964.8
02 21.09 С 1 н/о н/о +7.4 +2.6 72 +7 +7 1028.2 964.6
03 21.09 СВ 1 н/о н/о +7.1 +2.4 72 +6 +6 1028.1 964.4
04 21.09 С 1 н/о н/о +7.1 +2.5 73 +6 +6 1027.6 964.0
05 21.09 ЮЗ 2 н/о н/о +6.5 +3.0 78 +4 +4 1027.8 964.0
06 21.09 ЮЗ 1 н/о н/о +8.8 +3.3 68 +8 +8 1027.2 964.0 +6.4 +11.8
07 21.09 ЮЗ 1 н/о н/о +11.9 +4.0 58 +12 +12 1026.9 964.4
08 21.09 Ю 1 н/о н/о +13.6 +4.8 55 +14 +14 1026.5 964.4
09 21.09 ЮВ 2 н/о н/о +14.6 +2.6 44 +14 +14 1026.2 964.3
10 21.09 Ю 1 н/о н/о +14.9 +4.0 48 +16 +16 1026.1 964.2
11 21.09 Ю 1 н/о н/о +15.3 +4.6 49 +16 +16 1025.4 963.7
12 21.09 Ю 1 н/о н/о +15.7 +4.6 48 +17 +17 1024.7 963.1
13 21.09 Ю 1 н/о н/о +16.8 +5.0 46 +18 +18 1023.9 962.6
14 21.09 ЮВ 2 н/о н/о +16.3 +4.6 46 +17 +17 1023.4 962.0
15 21.09 Ю 1 н/о н/о +15.7 +5.0 49 +17 +17 1023.0 961.5
16 21.09 ЮВ 1 н/о н/о +15.1 +5.4 52 +16 +16 1022.8 961.2
17 21.09 Ю 1 н/о н/о +13.9 +5.1 55 +14 +14 1022.8 960.9
18 21.09 ЮВ 1 н/о н/о +13.2 +4.5 56 +14 +14 1023.0 961.0 +8.2 +17.3
19 21.09 Ю 1 н/о н/о +12.3 +4.5 59 +13 +13 1023.1 960.9
20 21.09 СВ 1 н/о н/о +10.8 +4.6 66 +11 +11 1023.2 960.7
21 21.09 СВ 1 н/о н/о +10.7 +4.4 65 +11 +11 1023.0 960.5
22 21.09 СВ 1 н/о н/о +9.8 +4.4 69 +10 +10 1022.8 960.1
23 21.09 СВ 1 н/о н/о +8.7 +4.5 75 +8 +8 1022.2 959.3
00 22.09 СВ 2 н/о н/о +8.2 +4.6 78 +6 +6 1021.6 958.6
01 22.09 СВ 2 н/о н/о +7.6 +4.4 80 +6 +6 1021.5 958.4
02 22.09 СВ 2 н/о н/о +7.0 +4.2 82 +5 +5 1021.2 958.0
03 22.09 СВ 2 н/о н/о +6.1 +4.2 88 +4 +4 1020.9 957.5
04 22.09 СВ 2 н/о н/о +5.9 +4.1 88 +3 +3 1020.3 956.9
05 22.09 СВ 2 н/о н/о +5.7 +4.0 89 +3 +3 1020.2 956.7
06 22.09 СВ 2 н/о н/о +8.4 +4.9 79 +7 +7 1019.7 956.9 +5.7 +13.3
07 22.09 СВ 2 н/о н/о +9.4 +5.3 76 +8 +8 1019.4 956.8
08 22.09 В 1 н/о н/о +11.0 +6.5 74 +11 +11 1018.6 956.4
09 22.09 В 1 н/о н/о +13.4 +6.5 63 +14 +14 1017.4 955.8
10 22.09 Ю 1 н/о н/о +14.4 +7.6 64 +15 +15 1017.0 955.6
11 22.09 Ю 1 н/о н/о +14.6 +7.2 61 +15 +15 1016.2 954.9
12 22.09 В 1 н/о н/о +14.6 +7.7 63 +15 +15 1015.6 954.4
13 22.09 ЮВ 1 н/о н/о +15.0 +8.1 63 +16 +16 1015.2 954.1
14 22.09 СВ 1 н/о н/о +15.2 +8.3 63 +16 +16 1014.6 953.6
15 22.09 СВ 1 н/о н/о +15.3 +8.9 66 +16 +16 1014.3 953.3
16 22.09 С 1 н/о н/о +14.8 +9.4 70 +15 +15 1014.1 953.0
17 22.09 С 1 н/о н/о +14.0 +8.8 71 +14 +14 1013.7 952.5
18 22.09 С 1 н/о н/о +13.3 +8.8 74 +14 +14 1013.6 952.2 +7.8 +15.4
19 22.09 С 1 н/о н/о +13.2 +8.1 71 +13 +13 1013.4 952.0
20 22.09 СЗ 1 н/о н/о +12.9 +7.8 71 +13 +13 1013.0 951.6
21 22.09 ЮЗ 1 н/о н/о +12.1 +8.2 77 +12 +12 1012.9 951.3
22 22.09 ЮЗ 1 н/о н/о +11.8 +8.2 79 +12 +12 1012.5 950.9
23 22.09 СВ 1 н/о н/о +10.9 +8.1 83 +11 +11 1012.6 950.8
00 23.09 З 1 н/о н/о +10.8 +8.4 85 +10 +10 1012.5 950.7
01 23.09 З 2 н/о н/о +11.0 +8.5 85 +10 +10 1012.2 950.4
02 23.09 СВ 1 н/о н/о +10.6 +8.0 84 +10 +10 1012.0 950.2
03 23.09 В 2 н/о н/о +11.2 +7.9 80 +10 +10 1011.7 950.0
04 23.09 ЮЗ 1 н/о н/о +11.0 +8.3 83 +11 +11 1011.6 949.9
05 23.09 штиль 0 н/о н/о +11.5 +8.5 82 +11 +11 1011.3 949.7
06 23.09 Ю 1 н/о н/о +12.8 +9.3 79 +13 +13 1011.6 950.3 +10.2 +13.4
07 23.09 СВ 3 н/о н/о +14.8 +9.6 71 +14 +14 1011.4 950.5
08 23.09 СВ 2 н/о н/о +15.7 +10.2 70 +16 +16 1011.8 951.1
09 23.09 В 2 н/о н/о +16.7 +9.9 64 +17 +17 1011.6 951.1
10 23.09 В 2 н/о н/о +17.3 +11.0 66 +18 +18 1011.8 951.4

 

Местоположение метеостанции Ласницхёэ (Австрия): широта 47.07 долгота 15.58 высота над уровнем моря 533 м.

В архиве по умолчанию представлена погода в Ласницхёэ за последнюю неделю. Архивные данные за месяц целиком и за предыдущие месяцы, начиная с января 2011 года, Вы можете получить, выбрав интересующий диапазон дат из раскрывающегося списка и нажав кнопку "Ввод!".


*Определитесь, кто Вы:
робот инопланетянин человек

Внимание! Время в таблицах - всемирное. Для получения местного времени необходимо прибавить поправку, которая равна 1 ч.

Смотрите также архив погоды в соседних городах и на ближайших метеорологических станциях:

Погода в Граце университет (Австрия) (11 км)
Погода в Санкт Радегунд бай Грац (Австрия) (13 км)
Погода в Граце (Австрия) (14 км)
Погода на Шёкле (Австрия) (17 км)
Погода в Фельбахе (Австрия) (26 км)
Погода в Бад-Глайхенбере (Австрия) (33 км)
Погода в Лейбнице (Австрия) (33 км)
Погода в Кёфлаге (Австрия) (38 км)
Погода в Хартберге (Австрия) (38 км)
Погода в Дойчландсберге (Австрия) (38 км)

Пояснения к столбцам:

Ветер - указаны скорость ветра в м/с - средняя за 10 мин, порывы в срок и между сроками (в фигурных скобках) и направление, откуда дует ветер: С - северный, СВ - северо-восточный, В - восточный, ЮВ - юго-восточный, Ю - южный, ЮЗ - юго-западный, З - западный, СЗ - северо-западный.
Видимость - горизонтальная дальность видимости в метрах или километрах. При видимости от 1 до 10 км при отсутствии осадков обычно наблюдается дымка, при ухудшении видимости до 1 км и менее - туман. В сухую погоду видимость может ухудшаться дымом, пылью или мглою.
Явления - указаны атмосферные явления, наблюдавшиеся в срок или в последний час перед сроком; фигурными скобками обозначены явления, наблюдавшиеся между сроками (за 1-3 часа до срока); квадратными скобками обозначены град или гололедные отложения с указанием их диаметра в мм.
Облачность - указаны через наклонную черту общая и нижняя облачность в баллах и высота нижней границы облаков в метрах; квадратными скобками обозначены формы облаков: Ci - перистые, Cs - перисто-слоистые, Cc - перисто-кучевые, Ac - высококучевые, As - высокослоистые, Sc - слоисто-кучевые, Ns - слоисто-дождевые, Cu - кучевые, Cb - кучево-дождевые. Подробнее классификацию облаков см. в Атласе облаков (PDF).
T - Температура воздуха - температура, измеренная на высоте 2 м над землей.
Td - Температура точки росы - температура, при понижении до которой содержащийся в воздухе водяной пар достигнет насыщения.
f - Относительная влажность воздуха - влажноcть воздуха, измеренная на высоте 2 м над землей.
Te - Эффективная температура - температура, которую ощущает одетый по сезону человек в тени. Характеристика душности погоды. При расчете учитывается влияние влажности воздуха и скорости ветра на теплоощущения человека.
Tes - Эффективная температура на солнце - температура, которую ощущает человек, с поправкой на солнечный нагрев. Характеристика знойности погоды. Зависит от высоты солнца над горизонтом, облачности и скорости ветра. Ночью, в пасмурную погоду, а также при ветре 12 м/с и более поправка равна нулю.
P - Атмосферное давление - приведенное к уровню моря атмосферное давление.
Po - Атмосферное давление - измеренное на уровне метеостанции атмосферное давление.
Tmin - Минимальная температура - минимум температуры воздуха на высоте 2 м над землей.
Tmax - Максимальная температура - максимум температуры воздуха на высоте 2 м над землей.
R - Количество осадков - Количество выпавших осадков за период времени, мм. При наведении курсора мыши на число - период времени, за который выпало указанное количество осадков.
R24 - Количество осадков - Количество выпавших осадков за 24 часа, мм.
S - Снежный покров - Высота снежного покрова, см. При наведении курсора мыши на число - состояние снежного покрова и степень покрытия местности в баллах.